{"data":{"norad_id":36744,"intl_designator":"2010-032A","name":"COMS 1","alt_names":[],"object_type":"PAYLOAD","status":"ACTIVE","operator":null,"country":"SKOR","launch_date":"2010-06-26","launch_site_code":"FRGUI","launch_vehicle":null,"mission":null,"orbit_class":"UNKNOWN","rcs_meters":15.8489,"size_class":null,"mass_kg":null,"dimensions":null,"purposes":["comms","earth_obs"],"wikipedia_slug":null,"has_3d_model":false,"image_url":null,"decayed_at":null,"tle_current":{"epoch":"2026-09-01T22:08:38.840064Z","epoch_age_seconds":1612817,"freshness":"OLD","line1":"1 36744U 10032A   26244.92267176 -.00000267  00000+0  00000+0 0  9992","line2":"2 36744   4.9956  74.3909 0010500  20.0050 347.0864  0.99167640 51857","mean_motion":0.9916764,"eccentricity":0.00105,"inclination_deg":4.9956,"raan_deg":74.3909,"arg_perigee_deg":20.005,"mean_anomaly_deg":347.0864,"bstar":0,"rev_number":5185,"period_min":1452.0865879232,"perigee_km":36054.394330399,"apogee_km":36143.59630827,"semimajor_km":42477.132319334,"source":"CELESTRAK","updated_at":"2026-09-02T09:00:50.039798Z"}}}